Location: Gradaro
(45.0833°N, 10.8833°E)
Time: 10:16:02
(UTC+00:00)

FENGYUN 1C DEB - Pass Details

Date: 02 July 2021
Orbit: 803 x 830 km, 98.8° (Epoch: 28 July)

Event Time Altitude Azimuth Distance (km) Brightness Sun altitude
Exits shadow 22:06:10 28° 205° (SSW) 1,493 ? -19.9°
Maximum altitude 22:08:35 45° 261° (W) 1,096 ? -20.0°
Drops below altitude 10° 22:13:44 10° 334° (NNW) 2,425 ? -20.3°
Sets 22:16:12 0° 341° (NNW) 3,366 ? -20.4°
